TimeAKDT,TemperatureF,Dew PointF,Humidity,Sea Level PressureIn,VisibilityMPH,Wind Direction,Wind SpeedMPH,Gust SpeedMPH,PrecipitationIn,Events,Conditions,WindDirDegrees,DateUTC
12:53 AM,50.0,44.1,80,29.77,10.0,NE,4.6,-,N/A,,Mostly Cloudy,50,2013-08-05 08:53:00
1:53 AM,46.0,43.0,89,29.78,10.0,NNW,3.5,-,N/A,,Mostly Cloudy,340,2013-08-05 09:53:00
2:53 AM,44.1,41.0,89,29.78,10.0,Calm,Calm,-,N/A,,Mostly Cloudy,0,2013-08-05 10:53:00
3:53 AM,48.0,43.0,83,29.77,10.0,NNW,9.2,-,N/A,,Overcast,340,2013-08-05 11:53:00
4:39 AM,50.0,44.6,82,29.77,10.0,NNW,5.8,-,N/A,,Overcast,340,2013-08-05 12:39:00
4:53 AM,50.0,44.1,80,29.77,10.0,North,5.8,-,N/A,,Overcast,350,2013-08-05 12:53:00
5:53 AM,48.9,44.1,83,29.77,10.0,North,6.9,-,N/A,,Overcast,350,2013-08-05 13:53:00
6:25 AM,51.8,44.6,76,29.76,10.0,North,5.8,-,N/A,,Overcast,10,2013-08-05 14:25:00
6:48 AM,50.0,46.4,87,29.76,4.0,NE,11.5,-,0.00,Rain,Light Rain,50,2013-08-05 14:48:00
6:53 AM,50.0,46.9,89,29.76,6.0,NE,13.8,18.4,0.00,Rain,Light Rain,40,2013-08-05 14:53:00
7:53 AM,51.1,48.0,89,29.76,4.0,NE,10.4,-,0.01,Rain,Light Rain,40,2013-08-05 15:53:00
8:28 AM,51.8,48.2,88,29.76,10.0,NE,10.4,-,0.00,,Overcast,40,2013-08-05 16:28:00
8:53 AM,52.0,48.9,89,29.76,10.0,NE,9.2,-,0.00,,Overcast,40,2013-08-05 16:53:00
9:28 AM,53.6,50.0,88,29.76,4.0,NE,11.5,-,0.00,Rain,Light Rain,40,2013-08-05 17:28:00
9:50 AM,53.6,51.8,94,29.76,3.0,NE,10.4,-,0.02,,Overcast,40,2013-08-05 17:50:00
9:53 AM,53.1,51.1,93,29.76,7.0,NE,10.4,-,0.02,,Overcast,40,2013-08-05 17:53:00
10:53 AM,55.0,52.0,89,29.76,10.0,NE,9.2,-,0.00,,Overcast,40,2013-08-05 18:53:00
11:53 AM,57.0,52.0,83,29.75,10.0,ENE,11.5,-,0.00,Rain,Light Rain,60,2013-08-05 19:53:00
12:53 PM,57.9,53.1,84,29.75,10.0,NE,12.7,-,0.00,,Overcast,50,2013-08-05 20:53:00
1:53 PM,57.9,52.0,81,29.74,10.0,ENE,13.8,19.6,0.00,Rain,Light Rain,60,2013-08-05 21:53:00
2:37 PM,57.2,51.8,82,29.73,5.0,ENE,11.5,-,0.01,Rain,Rain,70,2013-08-05 22:37:00
2:49 PM,57.2,53.6,88,29.73,2.5,ENE,13.8,-,0.02,Rain,Light Rain,60,2013-08-05 22:49:00
2:50 PM,55.9,53.1,90,29.73,2.5,ENE,12.7,-,0.02,Rain,Light Rain,60,2013-08-05 22:50:00
2:57 PM,57.2,53.6,88,29.73,6.0,ENE,10.4,-,0.00,Rain,Light Rain,60,2013-08-05 22:57:00
3:19 PM,55.4,53.6,94,29.73,2.5,ENE,12.7,-,0.02,Rain,Rain,60,2013-08-05 23:19:00
3:27 PM,55.4,53.6,94,29.73,1.8,ENE,10.4,-,0.07,Rain,Rain,70,2013-08-05 23:27:00
3:33 PM,55.4,55.4,100,29.73,3.0,ENE,11.5,-,0.07,Rain,Light Rain,70,2013-08-05 23:33:00
3:53 PM,57.0,55.0,93,29.74,5.0,ENE,13.8,-,0.07,Rain,Light Rain,70,2013-08-05 23:53:00
4:43 PM,59.0,55.4,88,29.74,10.0,SE,11.5,-,0.01,,Mostly Cloudy,140,2013-08-06 00:43:00
4:53 PM,59.0,55.0,87,29.74,10.0,SE,10.4,-,0.01,,Overcast,140,2013-08-06 00:53:00
5:53 PM,57.9,51.1,78,29.75,10.0,SE,9.2,-,N/A,,Overcast,140,2013-08-06 01:53:00
6:53 PM,57.9,51.1,78,29.74,10.0,SSE,3.5,-,0.00,,Overcast,150,2013-08-06 02:53:00
7:34 PM,59.0,51.8,77,29.73,10.0,Calm,Calm,-,N/A,,Overcast,0,2013-08-06 03:34:00
7:53 PM,59.0,51.1,75,29.73,10.0,ENE,4.6,-,0.00,Rain,Light Rain,60,2013-08-06 03:53:00
8:53 PM,57.0,54.0,89,29.73,9.0,NE,4.6,-,0.03,Rain,Light Rain,50,2013-08-06 04:53:00
9:28 PM,55.4,53.6,94,29.73,2.0,East,5.8,-,0.11,Rain,Light Rain,90,2013-08-06 05:28:00
9:34 PM,55.4,53.6,94,29.73,3.0,ENE,4.6,-,0.12,Rain,Light Rain,70,2013-08-06 05:34:00
9:53 PM,55.9,54.0,93,29.74,10.0,East,5.8,-,0.12,,Overcast,80,2013-08-06 05:53:00
10:53 PM,55.0,53.1,93,29.74,10.0,NE,5.8,-,N/A,,Mostly Cloudy,50,2013-08-06 06:53:00
11:44 PM,55.4,53.6,94,29.74,10.0,NE,5.8,-,0.00,Rain,Light Rain,50,2013-08-06 07:44:00
11:53 PM,55.9,54.0,93,29.75,10.0,NE,5.8,-,0.00,,Overcast,50,2013-08-06 07:53:00